カタログに戻る

FENGYUN 1C DEB

運用中SSO
NORAD 30348·DEBRIS·🇨🇳 China

打ち上げ May 10, 1999 から Taiyuan Satellite Launch Center

Loading…

次のパス (今後24時間)

TLE

最新Source: Space-Track

元期: Sep 14, 2026, 06:26 UTC

1 30348U 99025ABK 26257.26866712  .00002845  00000-0  96147-3 0  9992
2 30348  98.8660   4.9521 0017819 277.7733 111.7397 14.37623066 14866

AllMySatでFENGYUN 1C DEBをリアルタイム追跡

Download on the App Store